CHIUDI BANNER

Seguici su twitter Seguici su facebook
LIVE Streaming HD
Get Adobe Flash player
Dati meteo stazione (refresh automatico ogni minuto)
Senigallia(AN) VENTO: VELOCITÀ   PIOGGIA: QTA GIORNO TEMPERATURA: ATTUALE
SPOT: Darsena Di Senigallia RAFFICA MASSIMA: QTA MENSILE: MASSIMA:
VELOCITÀ MEDIA: QTA ANNUALE: MINIMA:
DIREZIONE: UMIDITÀ: WIND CHILL:
TIPO: DEW POINT:
BEAUFORT: PRESSIONE:
I nostri partner
Senigallia(AN) nelle ultime ore
Applica filtri in visualizzazione Intervallo delle letture nelle ultime

Ora Direzione Vento Velocita' Vento Media Vento Raffica Max. Temperatura Wind Chill Pioggia Pressione
14:15:41326 °(NW)13.9 Kts12.2 Kts20 Kts0 °C0 °C0 mm1024.9 Hpa
14:10:34321 °(NW)12.2 Kts13 Kts20 Kts0 °C0 °C0 mm1024.9 Hpa
14:05:22325 °(NW)13.9 Kts13 Kts20 Kts0 °C0 °C0 mm1024.9 Hpa
13:59:45325 °(NW)11.3 Kts12.2 Kts20 Kts0 °C0 °C0 mm1024.9 Hpa
13:55:46329 °(NNW)13 Kts12.2 Kts20 Kts0 °C0 °C0 mm1024.9 Hpa
13:50:34336 °(NNW)10.4 Kts12.2 Kts20 Kts0 °C0 °C0 mm1024.9 Hpa
13:45:25323 °(NW)13 Kts12.2 Kts20 Kts0 °C0 °C0 mm1024.9 Hpa
13:40:45312 °(NW)10.4 Kts12.2 Kts20 Kts0 °C0 °C0 mm1025 Hpa
13:34:54322 °(NW)13 Kts12.2 Kts20 Kts0 °C0 °C0 mm1025.1 Hpa
13:30:47323 °(NW)12.2 Kts12.2 Kts20 Kts0 °C0 °C0 mm1025.1 Hpa
13:25:34343 °(NNW)10.4 Kts11.3 Kts20 Kts0 °C0 °C0 mm1025.1 Hpa
13:20:31330 °(NNW)12.2 Kts11.3 Kts20 Kts0 °C0 °C0 mm1025 Hpa
13:15:23333 °(NNW)9.6 Kts11.3 Kts20 Kts0 °C0 °C0 mm1025.3 Hpa
13:10:47331 °(NNW)14.8 Kts13 Kts20 Kts0 °C0 °C0 mm1025.3 Hpa
13:05:42335 °(NNW)14.8 Kts13 Kts20 Kts0 °C0 °C0 mm1025.4 Hpa
13:00:36338 °(NNW)15.6 Kts13 Kts20 Kts0 °C0 °C0 mm1025.5 Hpa
12:55:54323 °(NW)8.7 Kts13.9 Kts20 Kts0 °C0 °C0 mm1025.4 Hpa
12:50:42344 °(NNW)15.6 Kts14.8 Kts20 Kts0 °C0 °C0 mm1025.4 Hpa
12:44:28344 °(NNW)16.5 Kts14.8 Kts20 Kts0 °C0 °C0 mm1025.5 Hpa
12:40:46339 °(NNW)16.5 Kts13.9 Kts20 Kts0 °C0 °C0 mm1025.5 Hpa
12:35:39343 °(NNW)13.9 Kts13.9 Kts20 Kts0 °C0 °C0 mm1025.5 Hpa
12:30:31333 °(NNW)14.8 Kts14.8 Kts20 Kts0 °C0 °C0 mm1025.5 Hpa
12:25:20329 °(NNW)13 Kts14.8 Kts20 Kts0 °C0 °C0 mm1025.5 Hpa
12:20:45346 °(NNW)13 Kts14.8 Kts20 Kts0 °C0 °C0 mm1025.5 Hpa